User: anonymous   Login
Location: Albany
(35.0000°S, 118.0000°E)
Time: 21:41:45
(UTC-04:00)
Language:

Centaur D-1AR AC-48 - Orbit

View from above orbital plane
View from above orbital plane
View from above satellite
View from above satellite

Ground track
Ground track

The orbit data is extracted from the following two-line orbital elements,

1 10779U 78035B   15111.05099606 -.00000145  00000-0  84366-3 0  9992
2 10779 021.9155 343.4046 7184048 246.3434 350.3259 02.22634892301123
Epoch (UTC): 21 April 2015 01:13:26
Eccentricity: 0.7184048
inclination: 21.9155°
perigee height: 598 km
apogee height: 36194 km
right ascension of ascending node: 343.4046°
argument of perigee: 246.3434°
revolutions per day: 2.22634892
mean anomaly at epoch: 350.3259°
orbit number at epoch: 30112

The dashed part of the orbit path shows where the satellite is in the earth's shadow,  

DLR